[[{"header":{"parameterUnit":"m.s-1","parameterCategory":1,"la1":30.2991,"la2":30.254,"lo1":-89.0895,"lo2":-89.0444,"dy":0.0017,"dx":0.0017,"nx":28,"ny":28,"refTime":"2024-07-23T21:00:00:Z","depth":0,"parameterNumber":2,"parameterNumberName":"U-component_of_WINDS"},"data":[0,0,0,0,0,0,0,0,0,0,0,0,0,0,0,0,0,0,0,0,0,0,0,0,0,0,0,0,0,0,0,0,0,0,0,0,0,0,0,0,0,0,0,0,0,0,0,0,0,0,0,0,0,0,0,0,0,0,1.2593,1.2595,0,1.2734,1.2736,1.2737,1.281,1.281,1.2811,1.2811,1.2958,1.2962,1.2966,0,0,0,0,0,0,0,0,0,0,0,0,0,1.2389,1.2393,1.2593,1.2595,1.2597,1.2734,1.2736,1.2738,1.281,1.281,1.2811,1.2811,1.2957,1.2961,1.2966,0,0,0,0,0,0,0,0,0,0,0,0,0,1.2499,1.2394,1.2593,1.2649,1.2656,1.2733,1.2736,1.2738,1.281,1.281,1.2811,1.2811,1.2955,1.2961,1.2967,1.3,0,0,1.2984,1.2987,0,0,0,0,0,0,0,0,1.2493,1.2506,1.2639,1.2646,1.2653,1.2755,1.2718,1.2826,1.281,1.2752,1.2811,1.2811,1.2891,1.2902,1.2928,1.3006,1.3013,1.2985,1.2988,1.2991,1.2992,0,0,0,0,0,0,0,1.2485,1.2501,1.2649,1.2641,1.265,1.2668,1.2684,1.2739,1.2819,1.2757,1.2763,1.2778,1.2894,1.2922,1.2932,1.3015,1.2985,1.299,1.2993,1.2995,1.3127,1.3127,0,0,0,0,0,0,1.2468,1.2494,1.2645,1.2653,1.2571,1.2672,1.269,1.2722,1.2818,1.2833,1.2778,1.2781,1.2912,1.2925,1.2937,1.2982,1.2991,1.2996,1.2999,1.3127,1.3127,1.3127,0,0,0,0,0,0,1.2463,1.2481,1.2639,1.2575,1.2597,1.2675,1.2711,1.2725,1.2753,1.2834,1.2849,1.2791,1.2913,1.2929,1.2983,1.2988,1.2999,1.3004,1.3127,1.3127,1.3127,1.3071,0,0,0,0,0,0,1.2457,1.2478,1.2491,1.2575,1.26,1.2681,1.2712,1.2727,1.2762,1.2767,1.2851,1.2865,1.2914,1.2974,1.2989,1.2996,1.3008,1.3127,1.3127,1.3127,1.3073,1.3069,1.3066,0,0,0,0,0,1.2449,1.2471,1.2492,1.2509,1.2617,1.2682,1.2696,1.2751,1.2762,1.2776,1.2828,1.2862,1.2985,1.2979,1.2996,1.3005,1.3127,1.3127,1.3127,1.3074,1.307,1.3066,0,0,0,0,0,0,1.2387,1.2483,1.2507,1.2556,1.261,1.2694,1.2713,1.2745,1.2798,1.2801,1.2869,1.2887,1.2934,1.2976,1.2967,1.3042,1.3059,1.3063,1.3013,1.301,1.3006,1.2996,1.3013,0,0,0,0,0,1.2379,1.2422,1.2504,1.2539,1.2565,1.2634,1.2664,1.2702,1.2761,1.2785,1.2841,1.2898,1.2949,1.2982,1.3034,1.3079,1.3098,1.3094,1.309,1.3087,1.3089,1.3116,1.3115,1.3127,1.3127,1.3127,0,0,1.2363,1.242,1.2444,1.2528,1.2574,1.2618,1.2653,1.2698,1.2731,1.2792,1.2846,1.2889,1.2957,1.3006,1.3031,1.3042,1.309,1.3087,1.3084,1.3088,1.3116,1.3115,1.3113,1.3128,1.3127,1.3127,0,0,1.2355,1.2403,1.2437,1.2483,1.2552,1.2598,1.2606,1.2685,1.2715,1.277,1.2816,1.2857,1.2945,1.2991,1.3026,1.3034,1.3068,1.305,1.3032,1.3057,1.3056,1.3055,1.3058,1.3059,1.3052,1.3051,1.3051,0,1.2327,1.2394,1.2451,1.2494,1.2529,1.2584,1.262,1.2661,1.2744,1.2768,1.2779,1.2888,1.2938,1.2999,1.3001,1.3027,1.3039,1.3041,1.3051,1.3051,1.3052,1.3055,1.3056,1.3049,1.3049,1.3049,1.305,0,1.2355,1.2401,1.2421,1.2497,1.2535,1.2574,1.2638,1.2669,1.2703,1.2748,1.2803,1.2864,1.2929,1.2946,1.2981,1.3012,1.3016,1.3038,1.3057,1.3047,1.3051,1.3053,1.3045,1.3046,1.3047,1.3047,0,0,1.2314,1.2421,1.2427,1.2462,1.2542,1.2579,1.262,1.2682,1.2708,1.2763,1.2799,1.2871,1.2891,1.2931,1.2971,1.2993,1.2995,1.3012,1.3015,1.3007,1.3033,1.3015,1.3016,1.3017,1.3018,1.3018,1.3027,0,1.2318,1.2393,1.2445,1.25,1.2543,1.2595,1.2631,1.2684,1.2726,1.277,1.2817,1.2867,1.289,1.2914,1.2938,1.299,1.3001,1.299,1.3052,1.3054,1.3033,1.3018,1.3001,1.3006,1.3029,1.3029,1.303,0,1.2333,1.2384,1.2443,1.2517,1.2537,1.2568,1.2629,1.2669,1.2731,1.276,1.2803,1.2844,1.289,1.2904,1.2968,1.2959,1.2988,1.3017,1.3019,1.3027,1.3041,1.3026,1.3009,1.3009,1.3033,1.3033,1.3032,0,1.2296,1.238,1.2426,1.2455,1.2543,1.2563,1.2601,1.2662,1.2696,1.2749,1.2772,1.283,1.2862,1.2907,1.2962,1.2967,1.302,1.304,1.3047,1.3045,1.3056,1.3054,1.3043,1.3074,1.3074,1.3074,1.3074,0,1.2295,1.2329,1.2411,1.2439,1.2478,1.2538,1.2576,1.2618,1.2672,1.271,1.2759,1.2794,1.2865,1.2908,1.2952,1.2998,1.3012,1.3038,1.3049,1.3033,1.303,1.3053,1.3054,1.3074,1.3074,1.3074,1.3074,0,1.2261,1.2317,1.237,1.2449,1.2469,1.2494,1.2562,1.2592,1.2636,1.2683,1.2698,1.2768,1.2821,1.2881,1.2955,1.2984,1.3027,1.3044,1.3006,1.3013,1.3016,1.3015,1.3019,1.3023,1.3051,1.305,1.305,0,1.2256,1.2283,1.2364,1.2392,1.2428,1.2473,1.2507,1.2567,1.2601,1.2671,1.2692,1.2749,1.2798,1.2881,1.2939,1.2995,1.3013,1.3011,1.3022,1.3005,1.3013,1.3011,1.3014,1.3008,1.3007,1.3007,1.3006,0,1.2242,1.2268,1.2315,1.2372,1.2411,1.2458,1.2508,1.2528,1.2598,1.2633,1.2688,1.2725,1.2799,1.2855,1.2919,1.2959,1.2994,1.3002,1.3007,1.2991,1.2968,1.298,1.2997,1.3002,1.3002,1.3003,1.3003,1.3003,1.2223,1.2249,1.2309,1.236,1.2403,1.2448,1.2479,1.2527,1.2573,1.2637,1.267,1.2724,1.2784,1.2872,1.2911,1.2955,1.2966,1.2973,1.2975,1.2975,1.2971,1.296,1.2966,1.2967,1.2967,1.2967,1.2967,0,1.2211,1.2252,1.2298,1.2365,1.2405,1.2433,1.2489,1.2521,1.2567,1.262,1.2666,1.2728,1.2782,1.2844,1.2902,1.2925,1.2942,1.2938,1.2937,1.2945,1.2957,1.2947,1.2922,1.2922,1.2923,1.2923,1.2923,1.2923,1.221,1.2255,1.2288,1.2356,1.2397,1.2449,1.2479,1.2521,1.2563,1.2629,1.2674,1.2713,1.277,1.2832,1.2883,1.29,1.2919,1.2909,1.2931,1.2941,1.2945,1.2948,1.2939,1.2913,1.2913,1.2916,1.2916,1.2916]},{"header":{"parameterUnit":"m.s-1","parameterCategory":1,"la1":30.2991,"la2":30.254,"lo1":-89.0895,"lo2":-89.0444,"dy":0.0017,"dx":0.0017,"nx":28,"ny":28,"refTime":"2024-07-23T21:00:00:Z","depth":0,"parameterNumber":3,"parameterNumberName":"V-component_of_WINDS"},"data":[0,0,0,0,0,0,0,0,0,0,0,0,0,0,0,0,0,0,0,0,0,0,0,0,0,0,0,0,0,0,0,0,0,0,0,0,0,0,0,0,0,0,0,0,0,0,0,0,0,0,0,0,0,0,0,0,0,0,3.0558,3.0557,0,3.0533,3.0533,3.0533,3.0499,3.0499,3.0498,3.0498,3.0472,3.0472,3.0472,0,0,0,0,0,0,0,0,0,0,0,0,0,3.0575,3.0575,3.0558,3.0557,3.0557,3.0533,3.0533,3.0533,3.0499,3.0499,3.0498,3.0497,3.0472,3.0472,3.0472,0,0,0,0,0,0,0,0,0,0,0,0,0,3.0561,3.0575,3.0558,3.0538,3.0536,3.0533,3.0533,3.0533,3.05,3.0499,3.0498,3.0497,3.0472,3.0472,3.0472,3.0487,0,0,3.0471,3.0471,0,0,0,0,0,0,0,0,3.0562,3.056,3.0541,3.0539,3.0537,3.0518,3.053,3.0517,3.05,3.0513,3.0498,3.0497,3.0488,3.0487,3.0484,3.0486,3.0485,3.0471,3.0471,3.0471,3.0471,0,0,0,0,0,0,0,3.0563,3.0561,3.0548,3.0541,3.0538,3.053,3.0527,3.0527,3.0506,3.0512,3.051,3.0507,3.0487,3.0484,3.0483,3.0485,3.0471,3.0471,3.0471,3.0471,3.0499,3.05,0,0,0,0,0,0,3.0567,3.0562,3.0549,3.0547,3.0547,3.053,3.0527,3.0525,3.0506,3.0502,3.0508,3.0506,3.0485,3.0484,3.0482,3.0499,3.0471,3.0471,3.0471,3.0498,3.0499,3.05,0,0,0,0,0,0,3.0567,3.0566,3.055,3.0554,3.0551,3.0531,3.0529,3.0525,3.0522,3.0503,3.0499,3.0509,3.0484,3.0483,3.0486,3.0498,3.0471,3.0471,3.0497,3.0498,3.0499,3.0533,0,0,0,0,0,0,3.0568,3.0566,3.0572,3.0554,3.0551,3.0555,3.053,3.0525,3.0522,3.0519,3.0503,3.0499,3.0484,3.0487,3.0486,3.0497,3.047,3.0496,3.0497,3.0499,3.0531,3.0535,3.0539,0,0,0,0,0,3.0569,3.0582,3.0572,3.0571,3.0558,3.0555,3.0553,3.0535,3.0523,3.0529,3.0516,3.05,3.0497,3.0488,3.0487,3.0497,3.0495,3.0497,3.0499,3.0529,3.0534,3.0539,0,0,0,0,0,0,3.0601,3.058,3.0568,3.0577,3.0568,3.055,3.0556,3.0542,3.0536,3.0534,3.0511,3.0508,3.0515,3.0506,3.0497,3.0511,3.0493,3.0495,3.0517,3.0522,3.0526,3.0528,3.047,0,0,0,0,0,3.061,3.0609,3.059,3.0599,3.0596,3.0577,3.0575,3.0562,3.0552,3.0548,3.0536,3.0527,3.0524,3.0522,3.0518,3.053,3.0526,3.0536,3.0541,3.0544,3.0546,3.0552,3.0556,3.0506,3.0506,3.0506,0,0,3.0627,3.0615,3.0616,3.0606,3.0598,3.0598,3.0574,3.0575,3.0575,3.0548,3.0551,3.0542,3.053,3.0538,3.0541,3.0531,3.0559,3.0547,3.055,3.0549,3.0554,3.0559,3.0563,3.0508,3.0507,3.0507,0,0,3.0658,3.0648,3.0655,3.0648,3.0636,3.0623,3.0625,3.0608,3.0601,3.0604,3.0584,3.0584,3.0579,3.0572,3.0567,3.0596,3.0581,3.0595,3.0617,3.0623,3.0627,3.063,3.0641,3.0645,3.0597,3.0597,3.0597,0,3.068,3.068,3.066,3.0663,3.0659,3.0635,3.0642,3.0635,3.0623,3.0621,3.061,3.0604,3.0595,3.0601,3.0608,3.0605,3.0606,3.0597,3.0628,3.0631,3.0634,3.0644,3.0648,3.0599,3.0599,3.0599,3.0599,0,3.0708,3.0708,3.0715,3.0704,3.0701,3.0705,3.0687,3.0686,3.0674,3.0662,3.0665,3.0653,3.0647,3.0647,3.0635,3.0651,3.0646,3.0632,3.0613,3.0641,3.065,3.0653,3.0602,3.0601,3.0601,3.06,0,0,3.0758,3.0737,3.074,3.0734,3.072,3.0719,3.0723,3.0717,3.0717,3.0709,3.0712,3.0708,3.0696,3.0691,3.0677,3.0682,3.0706,3.0668,3.0667,3.0676,3.0724,3.0735,3.074,3.0696,3.0697,3.0697,3.0725,0,3.0787,3.0792,3.0775,3.0784,3.0784,3.0762,3.0765,3.0756,3.0746,3.0744,3.0732,3.0731,3.0714,3.0711,3.0715,3.0703,3.0716,3.07,3.0699,3.0699,3.0702,3.0744,3.0755,3.0782,3.0729,3.0729,3.073,0,3.082,3.0814,3.0824,3.0809,3.0808,3.0812,3.0805,3.0804,3.0793,3.0785,3.078,3.0765,3.0768,3.075,3.0753,3.0743,3.0742,3.0735,3.0736,3.0735,3.0716,3.0745,3.0791,3.0795,3.0735,3.0734,3.0734,0,3.0856,3.0851,3.0856,3.0852,3.0835,3.0838,3.0831,3.082,3.0817,3.0811,3.0809,3.0804,3.0801,3.0797,3.078,3.0769,3.0786,3.0767,3.078,3.078,3.0784,3.0784,3.0831,3.0783,3.0783,3.0783,3.0783,0,3.0889,3.0896,3.0872,3.0875,3.0882,3.0863,3.087,3.0861,3.0852,3.0853,3.0833,3.0834,3.0812,3.0811,3.0798,3.0803,3.0802,3.0796,3.0792,3.0798,3.0799,3.0796,3.0794,3.0784,3.0784,3.0783,3.0783,0,3.0931,3.0915,3.0919,3.0903,3.0899,3.0905,3.089,3.0893,3.0881,3.0883,3.0882,3.0864,3.0862,3.0845,3.0839,3.083,3.084,3.0833,3.0844,3.0842,3.0856,3.0855,3.0903,3.0908,3.0857,3.0857,3.0857,0,3.0953,3.0958,3.0942,3.0941,3.0935,3.0935,3.0932,3.0913,3.0911,3.0901,3.0904,3.0901,3.0897,3.0895,3.0881,3.0876,3.0869,3.0886,3.0868,3.0874,3.087,3.087,3.087,3.089,3.089,3.0891,3.0891,0,3.0994,3.0986,3.0984,3.0978,3.0976,3.0971,3.0965,3.0965,3.0944,3.0943,3.0941,3.0938,3.0932,3.0929,3.0922,3.0915,3.09,3.0897,3.09,3.0906,3.0912,3.0909,3.0855,3.0896,3.0896,3.0895,3.0895,3.0895,3.1027,3.103,3.102,3.1018,3.1011,3.1006,3.1007,3.0996,3.0994,3.0988,3.0977,3.0977,3.0967,3.0956,3.095,3.0949,3.094,3.0944,3.0945,3.0947,3.095,3.0912,3.0948,3.0948,3.0948,3.0947,3.0947,0,3.1068,3.106,3.1058,3.105,3.1048,3.1034,3.1027,3.1026,3.1026,3.1018,3.1015,3.1013,3.101,3.0996,3.0992,3.0994,3.0987,3.0993,3.0993,3.0992,3.0958,3.0956,3.0999,3.0999,3.0999,3.0999,3.0999,3.0999,3.1089,3.1094,3.1085,3.1087,3.1079,3.1078,3.1075,3.107,3.1064,3.1063,3.106,3.1051,3.1041,3.1036,3.1032,3.1028,3.1028,3.1037,3.1031,3.0999,3.0994,3.0989,3.0988,3.1037,3.1037,3.1065,3.1065,3.1065]}]]